sat.trackr.live / text

‹ back to catalog

STARLINK-33535

NORAD 63417 · 2025-065U

PAYLOAD ACTIVE UNKNOWN

§ Identity

Operator
Country
US
Launch date
2025-03-31
Launch site
AFETR
Launch vehicle
Mass (kg)
RCS (m²)

Purposes: comms

External: N2YO · Heavens-Above · Gunter

§ Orbital elements

Epoch: 2026-09-20T05:40:14.318976Z

Period
94.27 min
Inclination
43.0035°
Eccentricity
0.0002018
Mean motion
15.27591015 rev/d
Perigee alt
481.6 km
Apogee alt
484.4 km
Semi-major
6,861.2 km
B*
4.2904e-4
RAAN
88.2817°
Arg perigee
260.5229°
Mean anomaly
99.5394°
Rev number
8,259

§ Raw data

STARLINK-335351 63417U 25065U   26263.23627684  .00011567  00000+0  42904-3 0  99972 63417  43.0035  88.2817 0002018 260.5229  99.5394 15.27591015 82598

JSON: /api/v1/satellites/63417 · /tle

For live sub-satellite position, see the globe view (requires WebGL).

§ Visibility from observer

Set your observer location to see the next 7 days of passes ≥ 10°. The values pass through the URL so the page stays shareable.

No JS? Fill the form by hand. The geolocation button needs JavaScript.